Tracking 31027 objects as of 19-Jul-2025
HD Live streaming from Space Station
objects crossing your sky now

CUPID

Track CUPID now!
10-day predictions
CUPID is classified as:


NORAD ID: 49264
Int'l Code: 2021-088E
Perigee: 503.4 km
Apogee: 524.1 km
Inclination: 97.4 °
Period: 94.8 minutes
Semi major axis: 6884 km
RCS: Unknown
Launch date: September 27, 2021
Source: United States (US)
Launch site: AIR FORCE WESTERN TEST RANGE (AFWTR)

Uplink (MHz):
Downlink (MHz): 400.500
Beacon (MHz):
Mode: 38k4 GFSK
Call sign:
Status: Inactive

Your satellite tracking list
MAROC TUBSAT
Track 1 satellite(s)




NASA's NSSDC Master Catalog

Two Line Element Set (TLE):
1 49264U 21088E   25199.61698443  .00004958  00000-0  23446-3 0  9999
2 49264  97.4364 260.1941 0014968 150.7796 209.4280 15.19745590209413
Source of the keplerian elements: AFSPC